Flag for U.S.A. Weather past 2 weeks in Unalaska, Alaska, U.S.A.

Now
55 °F

Passing clouds.


Feels Like: 52 °F
Forecast: 46 / 55 °F
Wind: 10 mph from East

Location: Dutch Harbor

Current Time: Sep 1, 2014 at 6:03:00 PM

Latest Report: Sep 1, 2014 at 4:56 PM


Visibility: 10 mi

Pressure: 30.29 "Hg

Humidity: 72%

Dew point: 46 °F

Location of UnalaskaLocation

Historic Weather in Unalaska — Graph

°F

Unalaska temperature yesterday

Maximum temperature yesterday: 54 °F (at 12:56 PM)
Minimum temperature yesterday: 50 °F (at 3:56 AM)
Average temperature yesterday: 52 °F

Past Weeks' High & Low Weather Summary

 TemperatureHumidityPressure
High62 °F (Aug 26, 2:56 PM)97% (Aug 19, 9:56 PM)30.32 "Hg (Aug 19, 9:56 PM)
Low44 °F (Sep 1, 7:56 AM)58% (Sep 1, 2:56 PM)29.57 "Hg (Aug 30, 3:56 AM)
Average54 °F81%29.97 "Hg
* Reported Aug 17 4:56 PM — Sep 1 4:56 PM, Unalaska, Weather by CustomWeather, © 2014

Note: Actual official high and low records may vary slightly from our data, if they occured in-between our weather recording intervals... More about our weather records

Advertising

Unalaska weather history for previous 24 hours

 ConditionsComfort  
Time TempWeatherWind HumidityBarometerVisibility
4:56 PM
Sep 1
55 °FPassing clouds.10 mph72%30.29 "Hg10 mi
3:56 PM55 °FPassing clouds.15 mph74%30.30 "Hg10 mi
2:56 PM57 °FPassing clouds.8 mph58%30.31 "Hg10 mi
1:56 PM55 °FSunny.8 mph62%30.32 "Hg10 mi
12:56 PM54 °FSunny.6 mph64%30.32 "Hg10 mi
11:56 AM52 °FSunny.3 mph72%30.32 "Hg10 mi
10:56 AM49 °FSunny.No wind77%30.31 "Hg10 mi
9:56 AM47 °FSunny.No wind80%30.31 "Hg10 mi
8:56 AM45 °FClear.3 mph80%30.30 "Hg10 mi
7:56 AM44 °FClear.3 mph82%30.29 "Hg10 mi
6:56 AM45 °FClear.No wind82%30.29 "Hg10 mi
5:56 AM45 °FClear.3 mph86%30.29 "Hg10 mi
4:56 AM45 °FClear.5 mph86%30.28 "Hg10 mi
3:56 AM46 °FClear.6 mph83%30.28 "Hg10 mi
2:56 AM48 °FClear.3 mph80%30.27 "Hg10 mi
1:56 AM49 °FPassing clouds.No wind77%30.27 "Hg10 mi
12:56 AM51 °FPassing clouds.5 mph74%30.26 "Hg10 mi
11:56 PM
Aug 31
52 °FOvercast.6 mph72%30.25 "Hg10 mi
10:56 PM52 °FMostly cloudy.8 mph72%30.23 "Hg10 mi
9:56 PM53 °FMostly cloudy.5 mph74%30.21 "Hg10 mi
8:56 PM53 °FOvercast.5 mph77%30.19 "Hg10 mi
7:56 PM52 °FLight rain. Fog.10 mph77%30.18 "Hg6 mi
6:56 PM52 °FLight rain. Fog.6 mph80%30.16 "Hg6 mi
Weather by CustomWeather, © 2014

See weather overviewHow to use our weather pages